sat.trackr.live / text

‹ back to catalog

STARLINK-34672

NORAD 65894 · 2025-224N

PAYLOAD ACTIVE UNKNOWN

§ Identity

Operator
Country
US
Launch date
2025-10-07
Launch site
AFETR
Launch vehicle
Mass (kg)
RCS (m²)

Purposes: comms

External: N2YO · Heavens-Above · Gunter

§ Orbital elements

Epoch: 2026-09-20T04:52:50.618496Z

Period
93.85 min
Inclination
53.1589°
Eccentricity
0.0000281
Mean motion
15.34418585 rev/d
Perigee alt
462.5 km
Apogee alt
462.8 km
Semi-major
6,840.8 km
B*
6.3343e-4
RAAN
187.2521°
Arg perigee
50.5969°
Mean anomaly
309.5058°
Rev number
5,466

§ Raw data

STARLINK-346721 65894U 25224N   26263.20336364  .00021098  00000+0  63343-3 0  99942 65894  53.1589 187.2521 0000281  50.5969 309.5058 15.34418585 54661

JSON: /api/v1/satellites/65894 · /tle

For live sub-satellite position, see the globe view (requires WebGL).

§ Visibility from observer

Set your observer location to see the next 7 days of passes ≥ 10°. The values pass through the URL so the page stays shareable.

No JS? Fill the form by hand. The geolocation button needs JavaScript.